Torna al catalogo

VSP RF C1

AttivoScienzaSSO
NORAD 59136·PAYLOAD·🇧🇪 Belgium

Lanciato Mar 4, 2024 da Vandenberg Space Force Base

Loading…

Prossimi Passaggi (prossime 24 ore)

TLE

AggiornatoSource: Space-Track

Epoca: Sep 14, 2026, 14:24 UTC

1 59136U 24043AQ  26257.60025517  .00003418  00000-0  12902-3 0  9998
2 59136  97.5743  36.9690 0001132  89.6334 270.5035 15.27730721140747

Traccia VSP RF C1 in tempo reale con AllMySat

Download on the App Store